Location: ?????
(37.7324°N, 23.9257°E)
Time: 08:20:35
(UTC+00:00)

SMAP - Pass Details

Date: 29 November 2020
Orbit: 681 x 683 km, 98.1° (Epoch: 17 January)

Event Time Altitude Azimuth Distance (km) Brightness Sun altitude
Rises 04:42:33 0° 12° (NNE) 3,053 6.3 -7.4°
Reaches altitude 10° 04:44:48 10° 12° (NNE) 2,133 5.5 -7.0°
Maximum altitude 04:49:28 88° 285° (WNW) 688 3.1 -6.2°
Drops below altitude 10° 04:54:07 10° 195° (SSW) 2,116 5.7 -5.3°
Sets 04:56:20 0° 195° (SSW) 3,027 6.5 -4.9°
